General Aviation Weather

Text Reports

Enter one or more of the following location identifiers separated by a space:

Zip Code, Four-Character ICAO or Three-Character IATA airport codes.

METAR - Aviation Routine Weather Report
KMWO - Middletown, Ohio
Updated at 2:35 AM GMT on August 03, 2015 (10:35 PM EDT):
METAR KMWO 030235Z AUTO 22004KT 10SM CLR 23/19 A2990 RMK AO2 T02340185
TAF - Terminal Area Forecast
KMWO - Middletown, Ohio
Updated at 2:35 AM GMT on August 03, 2015 (10:35 PM EDT):
No TAF is currently available for this location.
Decoded:
No decoded TAF is available.
PIREP - Pilot Weather Report
KMWO - Middletown, Ohio
Updated at 2:35 AM GMT on August 03, 2015 (10:35 PM EDT):
No PIREP is currently available for this location.
AIRMET - Airmens Meteorological Information
KMWO - Middletown, Ohio
Updated at 2:35 AM GMT on August 03, 2015 (10:35 PM EDT):
No AIRMET is currently available for this location.
SIGMET - Significant Meteorological Information
KMWO - Middletown, Ohio
Updated at 2:35 AM GMT on August 03, 2015 (10:35 PM EDT):
No SIGMET is currently available for this location.
NOTAM - Notice to Airmen
KMWO - Middletown, Ohio
Updated at 2:35 AM GMT on August 03, 2015 (10:35 PM EDT):
No NOTAM is currently available for this location.
Forecast Area
KMWO - Middletown, Ohio
Updated at 2:35 AM GMT on August 03, 2015 (10:35 PM EDT):
No NOTAM is currently available for this location.
Aviation Weather Maps